OAL210 LGAV-LGIR

Flight info

Callsign OAL210
Flight time 0h 35m
Altitude 25000
Route KEA UL607 GIVIS T514 XAVIS
Aircraft B738/M-SDE2E3FGHIRWXY/LB1

Departure

Time 2026-05-07 09:15
Airport Athens Eleftherios Venizelos International Airport (LGAV)

Arrival

Time 2026-05-07 09:51
Airport Heraklion International Nikos Kazantzakis Airport (LGIR)
Time Latitude Longitude Altitude Speed Heading
2026-05-07 09:15 37.90474 23.92527 4193 ft 149 kts 216°
2026-05-07 09:15 37.89565 23.91637 4533 ft 182 kts 217°
2026-05-07 09:16 37.88432 23.90682 4800 ft 210 kts 199°
2026-05-07 09:16 37.86915 23.90726 5018 ft 235 kts 157°
2026-05-07 09:16 37.85557 23.92024 5325 ft 259 kts 138°
2026-05-07 09:16 37.84215 23.93638 5887 ft 272 kts 139°
2026-05-07 09:17 37.82796 23.95238 6766 ft 274 kts 141°
2026-05-07 09:17 37.81332 23.96760 7578 ft 279 kts 143°
2026-05-07 09:17 37.79775 23.98269 8338 ft 285 kts 144°
2026-05-07 09:17 37.78151 23.99751 9133 ft 291 kts 146°
2026-05-07 09:18 37.76467 24.01221 9965 ft 296 kts 147°
2026-05-07 09:18 37.74867 24.02572 10523 ft 309 kts 147°
2026-05-07 09:18 37.72991 24.04118 10726 ft 335 kts 148°
2026-05-07 09:18 37.70966 24.05751 11060 ft 354 kts 148°
2026-05-07 09:19 37.68854 24.07432 11736 ft 361 kts 148°
2026-05-07 09:19 37.66707 24.09125 12452 ft 366 kts 149°
2026-05-07 09:19 37.64524 24.10836 13187 ft 372 kts 149°
2026-05-07 09:19 37.62310 24.12563 13908 ft 377 kts 149°
2026-05-07 09:20 37.60085 24.14293 14550 ft 381 kts 149°
2026-05-07 09:20 37.57818 24.16052 15264 ft 384 kts 150°
2026-05-07 09:20 37.55536 24.17819 15973 ft 387 kts 150°
2026-05-07 09:20 37.53199 24.19627 16656 ft 390 kts 150°
2026-05-07 09:21 37.50901 24.21403 17304 ft 394 kts 150°
2026-05-07 09:21 37.48545 24.23222 17969 ft 398 kts 150°
2026-05-07 09:21 37.46175 24.25050 18594 ft 401 kts 150°
2026-05-07 09:21 37.43780 24.26897 19163 ft 405 kts 150°
2026-05-07 09:22 37.41365 24.28758 19736 ft 408 kts 150°
2026-05-07 09:22 37.38935 24.30630 20310 ft 411 kts 150°
2026-05-07 09:22 37.36484 24.32516 20853 ft 415 kts 150°
2026-05-07 09:22 37.34009 24.34419 21403 ft 418 kts 150°
2026-05-07 09:23 37.31546 24.36312 21939 ft 422 kts 150°
2026-05-07 09:23 37.29033 24.38241 22476 ft 425 kts 150°
2026-05-07 09:23 37.26487 24.40194 22930 ft 431 kts 150°
2026-05-07 09:23 37.23916 24.42165 23368 ft 436 kts 150°
2026-05-07 09:24 37.21316 24.44156 23925 ft 436 kts 150°
2026-05-07 09:24 37.18740 24.46129 24553 ft 433 kts 150°
2026-05-07 09:24 37.16162 24.48100 25011 ft 433 kts 150°
2026-05-07 09:24 37.13594 24.50062 25141 ft 431 kts 151°
2026-05-07 09:25 37.11031 24.52018 25145 ft 431 kts 151°
2026-05-07 09:25 37.08471 24.53970 25151 ft 431 kts 151°
2026-05-07 09:25 37.05942 24.55898 25161 ft 431 kts 151°
2026-05-07 09:25 37.03344 24.57877 25163 ft 431 kts 151°
2026-05-07 09:26 37.00816 24.59800 25160 ft 431 kts 151°
2026-05-07 09:26 36.98242 24.61755 25160 ft 431 kts 151°
2026-05-07 09:26 36.95678 24.63703 25158 ft 432 kts 151°
2026-05-07 09:26 36.93108 24.65654 25159 ft 432 kts 151°
2026-05-07 09:27 36.90540 24.67601 25147 ft 432 kts 151°
2026-05-07 09:27 36.87967 24.69550 25152 ft 432 kts 151°
2026-05-07 09:27 36.82823 24.73444 25161 ft 432 kts 151°
2026-05-07 09:28 36.80247 24.75391 25166 ft 432 kts 151°
2026-05-07 09:28 36.77696 24.77319 25166 ft 432 kts 151°
2026-05-07 09:28 36.75123 24.79261 25165 ft 432 kts 151°
2026-05-07 09:28 36.72541 24.81209 25168 ft 433 kts 151°
2026-05-07 09:29 36.69970 24.83146 25162 ft 432 kts 151°
2026-05-07 09:29 36.67393 24.85088 25165 ft 432 kts 151°
2026-05-07 09:29 36.64811 24.87030 25172 ft 432 kts 151°
2026-05-07 09:29 36.62238 24.88965 25164 ft 432 kts 151°
2026-05-07 09:30 36.59695 24.90877 25147 ft 421 kts 151°
2026-05-07 09:30 36.57215 24.92741 24932 ft 413 kts 151°
2026-05-07 09:30 36.54804 24.94551 24660 ft 408 kts 151°
2026-05-07 09:30 36.52379 24.96368 24252 ft 406 kts 151°
2026-05-07 09:31 36.49969 24.98172 23870 ft 403 kts 151°
2026-05-07 09:31 36.47572 24.99965 23427 ft 401 kts 151°
2026-05-07 09:31 36.45340 25.01634 23024 ft 399 kts 150°
2026-05-07 09:31 36.42967 25.03408 22595 ft 396 kts 150°
2026-05-07 09:32 36.40610 25.05169 22182 ft 394 kts 150°
2026-05-07 09:32 36.38266 25.06917 21780 ft 391 kts 150°
2026-05-07 09:32 36.35942 25.08650 21380 ft 389 kts 150°
2026-05-07 09:32 36.33625 25.10377 20988 ft 386 kts 150°
2026-05-07 09:33 36.31330 25.12086 20605 ft 384 kts 150°
2026-05-07 09:33 36.29049 25.13783 20218 ft 381 kts 150°
2026-05-07 09:33 36.26782 25.15470 19835 ft 379 kts 150°
2026-05-07 09:33 36.24550 25.17129 19457 ft 377 kts 150°
2026-05-07 09:34 36.22275 25.18818 19066 ft 375 kts 150°
2026-05-07 09:34 36.20074 25.20451 18694 ft 373 kts 150°
2026-05-07 09:34 36.17848 25.22102 18271 ft 372 kts 150°
2026-05-07 09:34 36.15632 25.23745 17849 ft 370 kts 150°
2026-05-07 09:35 36.13434 25.25373 17450 ft 367 kts 150°
2026-05-07 09:35 36.11249 25.26992 17062 ft 365 kts 150°
2026-05-07 09:35 36.09082 25.28595 16682 ft 362 kts 149°
2026-05-07 09:35 36.06927 25.30189 16298 ft 360 kts 149°
2026-05-07 09:36 36.04787 25.31769 15925 ft 357 kts 149°
2026-05-07 09:36 36.02655 25.33343 15560 ft 355 kts 149°
2026-05-07 09:36 36.00565 25.34884 15195 ft 354 kts 149°
2026-05-07 09:36 35.98478 25.36425 14794 ft 354 kts 149°
2026-05-07 09:37 35.96361 25.37990 14384 ft 353 kts 149°
2026-05-07 09:37 35.94267 25.39538 14000 ft 352 kts 149°
2026-05-07 09:37 35.92190 25.41068 13601 ft 351 kts 149°
2026-05-07 09:37 35.90098 25.42607 13207 ft 349 kts 149°
2026-05-07 09:38 35.88025 25.44131 12832 ft 347 kts 149°
2026-05-07 09:38 35.85955 25.45652 12460 ft 344 kts 149°
2026-05-07 09:38 35.83904 25.47156 12101 ft 342 kts 149°
2026-05-07 09:38 35.81866 25.48650 11729 ft 340 kts 149°
2026-05-07 09:39 35.79840 25.50135 11377 ft 338 kts 149°
2026-05-07 09:39 35.77827 25.51609 11016 ft 336 kts 149°
2026-05-07 09:39 35.75824 25.53076 10684 ft 333 kts 149°
2026-05-07 09:39 35.73864 25.54509 10538 ft 324 kts 149°
2026-05-07 09:40 35.71951 25.55908 10389 ft 315 kts 149°
2026-05-07 09:40 35.70087 25.57269 10252 ft 307 kts 149°
2026-05-07 09:40 35.68348 25.58684 10112 ft 299 kts 141°
2026-05-07 09:40 35.66754 25.60283 9790 ft 298 kts 140°
2026-05-07 09:41 35.65157 25.61910 9477 ft 297 kts 140°
2026-05-07 09:41 35.63558 25.63510 9152 ft 296 kts 141°
2026-05-07 09:41 35.61945 25.65078 8848 ft 294 kts 146°
2026-05-07 09:41 35.60035 25.65897 8520 ft 292 kts 180°
2026-05-07 09:42 35.58143 25.65290 8281 ft 285 kts 214°
2026-05-07 09:42 35.56860 25.63520 8064 ft 277 kts 244°
2026-05-07 09:42 35.56066 25.61383 7831 ft 274 kts 246°
2026-05-07 09:42 35.55242 25.59276 7543 ft 273 kts 243°
2026-05-07 09:43 35.54344 25.57205 7169 ft 277 kts 241°
2026-05-07 09:43 35.53695 25.55813 6963 ft 277 kts 239°
2026-05-07 09:43 35.52716 25.53813 6681 ft 276 kts 238°
2026-05-07 09:43 35.51702 25.51814 6383 ft 275 kts 237°
2026-05-07 09:44 35.50676 25.49833 6081 ft 274 kts 237°
2026-05-07 09:44 35.49645 25.47873 5802 ft 273 kts 236°
2026-05-07 09:44 35.48613 25.45925 5551 ft 270 kts 236°
2026-05-07 09:44 35.47602 25.44023 5427 ft 263 kts 236°
2026-05-07 09:45 35.46591 25.42138 5053 ft 266 kts 233°
2026-05-07 09:45 35.45211 25.40661 4637 ft 267 kts 202°
2026-05-07 09:45 35.43400 25.40357 4325 ft 265 kts 170°
2026-05-07 09:45 35.41719 25.41207 4191 ft 258 kts 152°
2026-05-07 09:46 35.40214 25.42257 4194 ft 244 kts 151°
2026-05-07 09:46 35.38808 25.43247 4280 ft 222 kts 153°
2026-05-07 09:46 35.37412 25.43652 4365 ft 195 kts 188°
2026-05-07 09:46 35.36179 25.43075 4364 ft 193 kts 211°
2026-05-07 09:47 35.35169 25.41978 4169 ft 196 kts 234°
2026-05-07 09:47 35.34554 25.40501 3936 ft 193 kts 243°
2026-05-07 09:47 35.33978 25.39021 3680 ft 191 kts 243°
2026-05-07 09:47 35.33408 25.37541 3442 ft 194 kts 243°
2026-05-07 09:48 35.32920 25.35972 3116 ft 200 kts 262°
2026-05-07 09:48 35.32920 25.34300 2874 ft 195 kts 270°
2026-05-07 09:48 35.32976 25.32680 2593 ft 185 kts 271°
2026-05-07 09:48 35.33086 25.31115 2307 ft 182 kts 275°
2026-05-07 09:49 35.33183 25.29592 2035 ft 176 kts 272°
2026-05-07 09:49 35.33291 25.28119 1770 ft 170 kts 277°
2026-05-07 09:49 35.33430 25.26704 1493 ft 164 kts 272°
2026-05-07 09:49 35.33487 25.25325 1287 ft 162 kts 274°
2026-05-07 09:50 35.33568 25.23952 1041 ft 160 kts 276°
2026-05-07 09:50 35.33664 25.22604 795 ft 158 kts 276°
2026-05-07 09:50 35.33748 25.21275 487 ft 158 kts 276°
2026-05-07 09:50 35.33841 25.19948 225 ft 155 kts 277°
2026-05-07 09:51 35.33932 25.18639 98 ft 150 kts 277°
2026-05-07 09:51 35.34010 25.17530 90 ft 102 kts 275°
2026-05-07 09:51 35.34048 25.16942 89 ft 39 kts 263°
2026-05-07 09:51 35.33949 25.16977 90 ft 18 kts 102°
2026-05-07 09:52 35.33937 25.17133 89 ft 20 kts 95°
2026-05-07 09:52 35.33925 25.17319 91 ft 24 kts 95°
2026-05-07 09:52 35.33883 25.17531 92 ft 28 kts 130°
2026-05-07 09:52 35.33815 25.17627 90 ft 0 kts 66°